SXM-7

Last updated on Tue Sep 16 2025 00:02:50 GMT+0000 (Coordinated Universal Time)

1 47240U 20096A 25258.00322491 -.00000220 00000+0 00000+0 0 9990 2 47240 0.0105 140.1803 0004114 350.5007 139.5119 1.00272042 4687
UTC large
Height (km)
Speed (km/s)
/
Latitude / Longitude
Inclination (degrees)
Orbital Period (minutes)
Azimuth
Elevation
Range (km)
Doppler Factor

Next 0 passes for location: London (51.5072 / 0.1276)

Sorry there are no passes over London.